Location: 433rd Scouts Home(Lloyd Manor Park, Etobicoke )
(43.6722°N, 79.5542°W)
Time: 08:30:41
(UTC-04:00)

X-37B - Visible Passes

Search period start: 21 September 2021 00:00
Search period end: 01 October 2021 00:00
Orbit: 381 x 393 km, 45.0° (Epoch: 29 August)

Date Brightness Start Highest point End Pass type
(mag) Time Alt. Az. Time Alt. Az. Time Alt. Az.
21 Sep 1.6 06:28:06 10° SW 06:31:06 41° SSE 06:34:07 10° E visible
22 Sep 2.2 05:31:58 22° S 05:32:51 25° SSE 05:35:32 10° E visible
23 Sep 3.8 04:36:23 11° ESE 04:36:23 11° ESE 04:36:35 10° ESE visible
23 Sep 0.8 06:08:40 18° WSW 06:10:53 65° SSE 06:14:02 10° ENE visible
24 Sep 1.7 05:13:02 38° SE 05:13:02 38° SE 05:15:35 10° E visible
25 Sep 0.5 05:49:38 37° WSW 05:50:44 89° NNW 05:53:55 10° ENE visible
26 Sep 2.7 04:53:55 26° E 04:53:55 26° E 04:55:30 10° ENE visible
26 Sep 0.8 06:26:12 12° W 06:29:03 65° N 06:32:12 10° E visible
27 Sep 0.5 05:30:29 70° NNW 05:30:36 71° N 05:33:47 10° ENE visible
28 Sep 3.8 04:34:46 15° ENE 04:34:46 15° ENE 04:35:22 10° ENE visible
28 Sep 0.7 06:07:03 21° WNW 06:08:57 68° N 06:12:06 10° E visible
29 Sep 1.8 05:11:21 42° ENE 05:11:21 42° ENE 05:13:40 10° E visible
29 Sep 0.6 06:44:04 10° WNW 06:47:13 75° SSW 06:50:23 10° ESE visible
30 Sep 0.5 05:47:59 45° WNW 05:48:50 81° N 05:52:00 10° E visible
